[[{"header":{"parameterUnit":"m.s-1","parameterCategory":1,"la1":30.2991,"la2":30.254,"lo1":-89.0895,"lo2":-89.0444,"dy":0.0017,"dx":0.0017,"nx":28,"ny":28,"refTime":"2025-02-12T09:00:00:Z","depth":0,"parameterNumber":2,"parameterNumberName":"U-component_of_WINDS"},"data":[0,0,0,0,0,0,0,0,0,0,0,0,0,0,0,0,0,0,0,0,0,0,0,0,0,0,0,0,0,0,0,0,0,0,0,0,0,0,0,0,0,0,0,0,0,0,0,0,0,0,0,0,0,0,0,0,0,0,0.4922,0.4921,0,0.4854,0.4854,0.4853,0.4803,0.4803,0.4803,0.4802,0.4737,0.4735,0.4734,0,0,0,0,0,0,0,0,0,0,0,0,0,0.5012,0.501,0.4922,0.4921,0.492,0.4855,0.4854,0.4853,0.4804,0.4803,0.4803,0.4802,0.4737,0.4735,0.4734,0,0,0,0,0,0,0,0,0,0,0,0,0,0.4961,0.501,0.4922,0.4888,0.4884,0.4855,0.4854,0.4852,0.4804,0.4803,0.4802,0.4802,0.4737,0.4736,0.4734,0.4734,0,0,0.4727,0.4726,0,0,0,0,0,0,0,0,0.4964,0.4958,0.4894,0.489,0.4886,0.4837,0.4861,0.4813,0.4804,0.4834,0.4802,0.4801,0.4771,0.4766,0.4755,0.4731,0.4728,0.4727,0.4726,0.4725,0.4725,0,0,0,0,0,0,0,0.4968,0.4961,0.4895,0.4893,0.4888,0.4877,0.4869,0.4852,0.4807,0.4832,0.4828,0.482,0.4768,0.4757,0.4753,0.4727,0.4727,0.4725,0.4724,0.4723,0.4701,0.4702,0,0,0,0,0,0,0.4976,0.4964,0.4897,0.4893,0.4924,0.4876,0.4867,0.4853,0.4807,0.4799,0.4821,0.4818,0.476,0.4755,0.475,0.4748,0.4725,0.4723,0.4722,0.4701,0.4701,0.4702,0,0,0,0,0,0,0.4978,0.4971,0.49,0.4928,0.4918,0.4875,0.486,0.4852,0.484,0.4799,0.4791,0.4817,0.476,0.4753,0.4738,0.4745,0.4722,0.472,0.47,0.4701,0.4702,0.4744,0,0,0,0,0,0,0.4981,0.4972,0.4971,0.4928,0.4916,0.4888,0.486,0.4851,0.4837,0.4833,0.4793,0.4786,0.4759,0.4742,0.4736,0.4742,0.4719,0.4699,0.47,0.4702,0.4742,0.4746,0.475,0,0,0,0,0,0.4985,0.4986,0.4971,0.4963,0.4914,0.4889,0.4882,0.485,0.4837,0.4836,0.481,0.4787,0.4745,0.4741,0.4734,0.4739,0.4699,0.47,0.4701,0.474,0.4745,0.475,0,0,0,0,0,0,0.5032,0.498,0.4962,0.495,0.4924,0.4881,0.4878,0.4857,0.4835,0.4832,0.4794,0.4785,0.4775,0.4755,0.4751,0.4738,0.4719,0.4719,0.4751,0.4755,0.4759,0.4764,0.4717,0,0,0,0,0,0.504,0.5023,0.4979,0.4972,0.496,0.4922,0.4909,0.4887,0.4859,0.4848,0.482,0.4795,0.4776,0.4765,0.4745,0.4739,0.473,0.4739,0.4743,0.4747,0.4748,0.4743,0.4747,0.4707,0.4707,0.4707,0,0,0.5058,0.5028,0.502,0.4981,0.4958,0.4942,0.4913,0.4897,0.4885,0.4846,0.483,0.4809,0.4779,0.4768,0.4762,0.4752,0.4757,0.4749,0.4752,0.475,0.4745,0.4749,0.4753,0.4708,0.4708,0.4707,0,0,0.5083,0.5058,0.505,0.5028,0.4993,0.4968,0.4966,0.4926,0.491,0.4893,0.4864,0.485,0.4818,0.4797,0.4783,0.4801,0.478,0.4796,0.4817,0.4814,0.4817,0.4819,0.4826,0.4829,0.4797,0.4797,0.4797,0,0.511,0.5084,0.5048,0.5034,0.5019,0.4981,0.4973,0.4954,0.4916,0.4906,0.4895,0.4854,0.4831,0.4816,0.482,0.481,0.4807,0.48,0.4819,0.4821,0.4823,0.4829,0.4832,0.4799,0.4799,0.4798,0.4798,0,0.5119,0.5102,0.5099,0.5062,0.5046,0.5035,0.4999,0.4988,0.4966,0.4943,0.4927,0.4898,0.4872,0.4866,0.4846,0.4848,0.4843,0.4826,0.4807,0.483,0.4835,0.4837,0.4802,0.4801,0.4801,0.48,0,0,0.5171,0.5115,0.5114,0.5097,0.5057,0.5044,0.5032,0.5005,0.4996,0.4972,0.4961,0.4935,0.4919,0.4903,0.488,0.4877,0.4894,0.486,0.4859,0.4868,0.4895,0.4908,0.4911,0.4879,0.488,0.488,0.4898,0,0.519,0.5165,0.5133,0.5119,0.5103,0.5068,0.5058,0.5033,0.5011,0.4995,0.497,0.4953,0.4933,0.4923,0.4918,0.4893,0.4899,0.4891,0.487,0.487,0.4879,0.4914,0.4927,0.4946,0.4899,0.49,0.49,0,0.5208,0.5184,0.5169,0.513,0.5122,0.5114,0.5087,0.5072,0.5044,0.5028,0.501,0.4985,0.4972,0.4954,0.4936,0.4932,0.4922,0.4908,0.4908,0.4905,0.4886,0.4912,0.4951,0.4953,0.4903,0.4902,0.4902,0,0.5248,0.5212,0.5198,0.5185,0.514,0.5134,0.5116,0.5086,0.5073,0.505,0.5041,0.5018,0.5005,0.4988,0.4958,0.4948,0.4944,0.4924,0.4931,0.4932,0.4931,0.4932,0.4969,0.4925,0.4925,0.4925,0.4925,0,0.5272,0.5264,0.5215,0.5207,0.5197,0.5161,0.5153,0.5131,0.5106,0.5094,0.5062,0.5052,0.5013,0.4998,0.4975,0.4964,0.4958,0.4946,0.494,0.4948,0.495,0.4941,0.4939,0.4926,0.4925,0.4925,0.4925,0,0.5315,0.5281,0.5264,0.5223,0.5212,0.5207,0.5172,0.5163,0.514,0.5124,0.5119,0.5082,0.5063,0.5031,0.5003,0.4988,0.4981,0.4971,0.499,0.4987,0.4995,0.4995,0.5028,0.5031,0.4986,0.4986,0.4987,0,0.5332,0.5325,0.5283,0.5272,0.5254,0.5236,0.5222,0.5187,0.5174,0.5141,0.5136,0.5115,0.5095,0.5067,0.5038,0.5017,0.5006,0.5019,0.5003,0.5012,0.5006,0.5007,0.5007,0.5023,0.5024,0.5024,0.5025,0,0.5366,0.535,0.533,0.5305,0.5289,0.5267,0.5245,0.5238,0.5198,0.5185,0.5164,0.5149,0.5121,0.51,0.5075,0.5057,0.5035,0.503,0.5031,0.5039,0.5051,0.5045,0.5001,0.5029,0.5029,0.5029,0.5028,0.5028,0.5397,0.5389,0.5358,0.5337,0.5316,0.5296,0.5285,0.526,0.5242,0.5215,0.5196,0.5177,0.515,0.5113,0.5097,0.5082,0.5072,0.5073,0.5073,0.5074,0.5078,0.5054,0.5078,0.5078,0.5077,0.5077,0.5077,0,0.5429,0.5408,0.5389,0.5358,0.5342,0.5321,0.5295,0.5284,0.5267,0.5243,0.5225,0.5202,0.5182,0.5152,0.5129,0.5124,0.5113,0.5119,0.5119,0.5116,0.5088,0.5089,0.5128,0.5128,0.5128,0.5128,0.5128,0.5128,0.5445,0.543,0.5411,0.5387,0.5366,0.5346,0.5333,0.5315,0.5295,0.5271,0.5253,0.5234,0.5208,0.5183,0.5165,0.5156,0.515,0.5159,0.5148,0.5122,0.5118,0.5113,0.5114,0.5158,0.5158,0.5177,0.5177,0.5177]},{"header":{"parameterUnit":"m.s-1","parameterCategory":1,"la1":30.2991,"la2":30.254,"lo1":-89.0895,"lo2":-89.0444,"dy":0.0017,"dx":0.0017,"nx":28,"ny":28,"refTime":"2025-02-12T09:00:00:Z","depth":0,"parameterNumber":3,"parameterNumberName":"V-component_of_WINDS"},"data":[0,0,0,0,0,0,0,0,0,0,0,0,0,0,0,0,0,0,0,0,0,0,0,0,0,0,0,0,0,0,0,0,0,0,0,0,0,0,0,0,0,0,0,0,0,0,0,0,0,0,0,0,0,0,0,0,0,0,7.8411,7.8413,0,7.8551,7.8552,7.8554,7.8546,7.8544,7.8542,7.854,7.8685,7.869,7.8696,0,0,0,0,0,0,0,0,0,0,0,0,0,7.8142,7.8147,7.8411,7.8413,7.8415,7.855,7.8552,7.8554,7.8546,7.8544,7.8542,7.8539,7.8683,7.869,7.8697,0,0,0,0,0,0,0,0,0,0,0,0,0,7.8268,7.8149,7.8411,7.8427,7.843,7.855,7.8552,7.8555,7.8547,7.8544,7.8541,7.8538,7.8681,7.8689,7.8698,7.8811,0,0,7.8724,7.8728,0,0,0,0,0,0,0,0,7.8261,7.8278,7.8423,7.8426,7.843,7.8528,7.8511,7.8641,7.8548,7.8503,7.854,7.8537,7.8635,7.8647,7.868,7.8818,7.8824,7.8725,7.873,7.8734,7.8736,0,0,0,0,0,0,0,7.8252,7.8272,7.8466,7.8425,7.8429,7.8429,7.8443,7.8535,7.8584,7.8506,7.8506,7.8523,7.8637,7.8672,7.8684,7.8826,7.8724,7.8732,7.8737,7.8741,7.9068,7.9072,0,0,0,0,0,0,7.824,7.8265,7.8462,7.8471,7.8336,7.8436,7.8452,7.8499,7.8583,7.8593,7.8525,7.8522,7.8659,7.8674,7.8689,7.883,7.8734,7.8742,7.8747,7.9065,7.9069,7.9073,0,0,0,0,0,0,7.8234,7.8257,7.8456,7.8368,7.8393,7.8444,7.8497,7.8504,7.8539,7.8597,7.8606,7.8552,7.8657,7.8677,7.8782,7.8834,7.8745,7.8753,7.9061,7.9066,7.9071,7.9111,0,0,0,0,0,0,7.8226,7.8255,7.8298,7.8369,7.8398,7.8546,7.85,7.8509,7.8554,7.8551,7.8625,7.8635,7.8656,7.8769,7.879,7.8845,7.876,7.9056,7.9063,7.9069,7.9105,7.9117,7.9127,0,0,0,0,0,7.8216,7.8303,7.83,7.8324,7.8452,7.8549,7.8566,7.8588,7.8558,7.8602,7.864,7.8632,7.8825,7.878,7.8803,7.8861,7.9053,7.9061,7.9069,7.91,7.9115,7.9127,0,0,0,0,0,0,7.8237,7.8313,7.831,7.8422,7.8479,7.8547,7.8603,7.8602,7.8669,7.8664,7.869,7.8707,7.8812,7.8847,7.8795,7.8978,7.8935,7.8948,7.8951,7.8965,7.8976,7.8966,7.8767,0,0,0,0,0,7.8254,7.8326,7.8388,7.8481,7.851,7.8552,7.8595,7.8608,7.8668,7.8692,7.8738,7.8797,7.8872,7.892,7.8992,7.911,7.9128,7.9162,7.9173,7.9182,7.9193,7.9261,7.9278,7.9099,7.9099,7.9099,0,0,7.8291,7.8342,7.8385,7.8487,7.8533,7.8608,7.8572,7.8652,7.8709,7.8705,7.8807,7.8843,7.8911,7.9024,7.9076,7.9057,7.9247,7.9192,7.9198,7.9205,7.9271,7.9288,7.9303,7.9104,7.9103,7.9103,0,0,7.8397,7.8442,7.8525,7.8572,7.8642,7.867,7.869,7.8759,7.8783,7.8886,7.8885,7.8953,7.908,7.913,7.9172,7.93,7.9296,7.9323,7.938,7.9447,7.9461,7.9473,7.9521,7.9538,7.9334,7.9334,7.9334,0,7.8435,7.8546,7.8568,7.865,7.8696,7.8696,7.8782,7.8827,7.8917,7.8949,7.8926,7.9087,7.9133,7.9259,7.929,7.9323,7.9349,7.9314,7.9457,7.947,7.9482,7.9528,7.9546,7.9337,7.9336,7.9336,7.9336,0,7.859,7.8668,7.8727,7.8815,7.8867,7.8951,7.8987,7.9038,7.9046,7.9077,7.9184,7.9239,7.9323,7.9354,7.9363,7.9483,7.9469,7.9451,7.9409,7.9502,7.9546,7.9563,7.9341,7.934,7.9339,7.9338,0,0,7.8712,7.8812,7.8833,7.8874,7.8953,7.9014,7.9099,7.9181,7.9225,7.9288,7.9361,7.9469,7.9454,7.9502,7.9517,7.9575,7.9676,7.955,7.9552,7.9574,7.9815,7.9829,7.9849,7.9674,7.9677,7.968,7.981,0,7.8827,7.8976,7.9,7.9132,7.9206,7.9208,7.9282,7.9339,7.9371,7.9439,7.9474,7.9552,7.9525,7.9554,7.9611,7.9651,7.9725,7.9642,7.9744,7.9748,7.9728,7.9871,7.9886,8.0005,7.9827,7.983,7.9832,0,7.8981,7.9049,7.9188,7.9259,7.9291,7.9357,7.9436,7.9501,7.9567,7.9586,7.9641,7.9649,7.9739,7.9693,7.9819,7.9762,7.9806,7.9832,7.9837,7.9849,7.9796,7.9888,8.0044,8.0062,7.9858,7.9856,7.9854,0,7.9059,7.9184,7.9285,7.9319,7.9404,7.9451,7.9489,7.9552,7.9601,7.967,7.9703,7.9781,7.9825,7.9887,7.9918,7.9881,8.0043,7.9998,8.0063,8.0062,8.0098,8.0095,8.0264,8.0123,8.0123,8.0122,8.0122,0,7.9186,7.9271,7.9321,7.9383,7.948,7.9507,7.9603,7.964,7.9696,7.9767,7.9773,7.984,7.9875,7.9948,7.9973,8.0075,8.0094,8.0114,8.0119,8.0114,8.0112,8.0143,8.0137,8.0127,8.0126,8.0125,8.0124,0,7.9288,7.9325,7.9435,7.9507,7.9527,7.9596,7.9658,7.972,7.9752,7.9841,7.9864,7.9915,8.0,8.0037,8.0142,8.0159,8.0277,8.0276,8.0255,8.0257,8.0321,8.0315,8.0517,8.0546,8.0384,8.0385,8.0386,0,7.9367,7.9434,7.9514,7.9561,7.9601,7.9677,7.9727,7.9758,7.981,7.9892,7.9944,8.003,8.01,8.0238,8.0285,8.0367,8.0369,8.0434,8.0381,8.0374,8.0372,8.0369,8.0377,8.0444,8.0445,8.0447,8.0448,0,7.9505,7.9521,7.9592,7.9672,7.9732,7.9796,7.9859,7.9898,7.9938,7.9997,8.0085,8.014,8.0248,8.0334,8.0419,8.046,8.0462,8.0464,8.0484,8.048,8.0465,8.0476,8.0283,8.0459,8.0458,8.0457,8.0457,8.0456,7.96,7.966,7.9726,7.9807,7.9858,7.9917,7.9979,8.002,8.0093,8.0184,8.0197,8.0292,8.036,8.0474,8.0518,8.0594,8.0578,8.0606,8.0613,8.062,8.0625,8.0452,8.0609,8.0609,8.0609,8.0608,8.0608,0,7.974,7.9783,7.9857,7.9945,8.001,8.0005,8.0075,8.013,8.0213,8.0276,8.0345,8.0448,8.0532,8.0587,8.0673,8.0723,8.0727,8.0745,8.0742,8.0753,8.0633,8.0609,8.0741,8.0741,8.0741,8.0741,8.0741,8.0741,7.982,7.9922,7.9946,8.0075,8.0118,8.0211,8.0251,8.0307,8.0357,8.0472,8.0542,8.0577,8.0638,8.0728,8.0806,8.0821,8.0853,8.0873,8.0886,8.0774,8.076,8.0747,8.0724,8.0879,8.0879,8.0999,8.1,8.1001]}]]